Station Historical Data
Daily Summary for January 2, 2017 Units:  Metric    English   Both
Next Day »
Daily Weekly Monthly Yearly Custom
  High: Low: Average:
Temperature: 1.5 °C -0.4 °C 0.6 °C
Dew Point: 0.8 °C -1.2 °C -0.2 °C
Humidity: 96% 94% 95%
Wind Speed: 30.6km/h 0km/h 9.7km/h
Wind Gust: 37km/h - -
Wind- - South
Pressure: 1021.9 hPa 1015.1 hPa -
Precipitation: 0 mm    
Historical Graphs
 
 
Tabular Data for January 2, 2017
Time Temperature Dew Point Pressure Wind Wind Speed Wind Gust Humidity Rainfall Rate (Hourly) solar Conditions
00:00 0.8 °C -0.1 °C 1015.5 hPa South 14.5 km/h 17.7 km/h 94% 0 mm 0.00 W/m2
00:05 0.7 °C -0.1 °C 1015.5 hPa South 6.4 km/h 16.1 km/h 94% 0 mm 0.00 W/m2
00:10 0.7 °C -0.1 °C 1015.5 hPa SSW 8 km/h 17.7 km/h 94% 0 mm 0.00 W/m2
00:15 0.7 °C -0.1 °C 1015.1 hPa South 9.7 km/h 20.9 km/h 94% 0 mm 0.00 W/m2
00:20 0.7 °C -0.1 °C 1015.1 hPa SSW 14.5 km/h 25.7 km/h 94% 0 mm 0.00 W/m2
00:25 0.7 °C -0.2 °C 1015.1 hPa South 6.4 km/h 24.1 km/h 94% 0 mm 0.00 W/m2
00:30 0.7 °C -0.2 °C 1015.1 hPa South 14.5 km/h 19.3 km/h 94% 0 mm 0.00 W/m2
00:35 0.7 °C -0.2 °C 1015.1 hPa SSW 12.9 km/h 22.5 km/h 94% 0 mm 0.00 W/m2
00:40 0.7 °C -0.2 °C 1015.1 hPa South 14.5 km/h 20.9 km/h 94% 0 mm 0.00 W/m2
00:45 0.6 °C -0.2 °C 1015.1 hPa Calm   17.7 km/h 94% 0 mm 0.00 W/m2
00:50 0.6 °C -0.2 °C 1015.1 hPa SSE 17.7 km/h 19.3 km/h 94% 0 mm 0.00 W/m2
00:55 0.6 °C -0.2 °C 1015.1 hPa South 25.7 km/h 33.8 km/h 94% 0 mm 0.00 W/m2
01:00 0.6 °C -0.2 °C 1015.1 hPa SSE 20.9 km/h 24.1 km/h 94% 0 mm 0.00 W/m2
01:05 0.6 °C -0.2 °C 1015.1 hPa SSW 6.4 km/h 22.5 km/h 94% 0 mm 0.00 W/m2
01:10 0.6 °C -0.2 °C 1015.1 hPa Calm   24.1 km/h 94% 0 mm 0.00 W/m2
01:15 0.6 °C -0.2 °C 1015.1 hPa SSE 11.3 km/h 20.9 km/h 94% 0 mm 0.00 W/m2
01:20 0.6 °C -0.2 °C 1015.5 hPa SSW 6.4 km/h 24.1 km/h 94% 0 mm 0.00 W/m2
01:25 0.6 °C -0.2 °C 1015.1 hPa SSW 22.5 km/h 24.1 km/h 94% 0 mm 0.00 W/m2
01:30 0.6 °C -0.2 °C 1015.1 hPa South 12.9 km/h 20.9 km/h 94% 0 mm 0.00 W/m2
01:35 0.6 °C -0.2 °C 1015.1 hPa South 9.7 km/h 25.7 km/h 94% 0 mm 0.00 W/m2
01:40 0.7 °C -0.2 °C 1015.5 hPa SSW 6.4 km/h 20.9 km/h 94% 0 mm 0.00 W/m2
01:45 0.7 °C -0.2 °C 1015.5 hPa SSW 6.4 km/h 19.3 km/h 94% 0 mm 0.00 W/m2
01:50 0.7 °C -0.2 °C 1015.5 hPa SSW 17.7 km/h 24.1 km/h 94% 0 mm 0.00 W/m2
01:55 0.7 °C -0.2 °C 1015.8 hPa SSE 11.3 km/h 24.1 km/h 94% 0 mm 0.00 W/m2
02:00 0.7 °C -0.2 °C 1015.8 hPa SSW 20.9 km/h 22.5 km/h 94% 0 mm 0.00 W/m2
02:05 0.7 °C -0.2 °C 1015.8 hPa SW 8 km/h 17.7 km/h 94% 0 mm 0.00 W/m2
02:10 0.6 °C -0.1 °C 1015.8 hPa SSE 9.7 km/h 29 km/h 95% 0 mm 0.00 W/m2
02:15 0.6 °C -0.1 °C 1015.8 hPa SSW 8 km/h 33.8 km/h 95% 0 mm 0.00 W/m2
02:20 0.6 °C -0.2 °C 1015.8 hPa SW 8 km/h 22.5 km/h 95% 0 mm 0.00 W/m2
02:26 0.6 °C -0.2 °C 1016.1 hPa SSW 24.1 km/h 30.6 km/h 95% 0 mm 0.00 W/m2
02:31 0.6 °C -0.2 °C 1016.1 hPa South 8 km/h 32.2 km/h 95% 0 mm 0.00 W/m2
02:36 0.6 °C -0.2 °C 1016.1 hPa SSE 8 km/h 29 km/h 95% 0 mm 0.00 W/m2
02:41 0.6 °C -0.2 °C 1016.1 hPa SSW 19.3 km/h 22.5 km/h 95% 0 mm 0.00 W/m2
02:46 0.6 °C -0.3 °C 1016.1 hPa South 14.5 km/h 20.9 km/h 94% 0 mm 0.00 W/m2
02:51 0.6 °C -0.2 °C 1016.1 hPa SSW 6.4 km/h 22.5 km/h 95% 0 mm 0.00 W/m2
02:56 0.6 °C -0.2 °C 1016.1 hPa SSW 4.8 km/h 24.1 km/h 95% 0 mm 0.00 W/m2
03:01 0.6 °C -0.2 °C 1016.1 hPa SSW 16.1 km/h 24.1 km/h 95% 0 mm 0.00 W/m2
03:06 0.6 °C -0.2 °C 1016.1 hPa SSW 6.4 km/h 22.5 km/h 95% 0 mm 0.00 W/m2
03:11 0.6 °C -0.1 °C 1016.1 hPa SSW 17.7 km/h 24.1 km/h 95% 0 mm 0.00 W/m2
03:16 0.6 °C -0.2 °C 1016.1 hPa SSW 8 km/h 25.7 km/h 95% 0 mm 0.00 W/m2
03:21 0.6 °C -0.1 °C 1016.1 hPa South 9.7 km/h 33.8 km/h 95% 0 mm 0.00 W/m2
03:26 0.6 °C -0.1 °C 1016.1 hPa Calm   29 km/h 95% 0 mm 0.00 W/m2
03:31 0.6 °C -0.1 °C 1016.1 hPa South 12.9 km/h 12.9 km/h 95% 0 mm 0.00 W/m2
03:36 0.6 °C -0.2 °C 1016.1 hPa SSE 11.3 km/h 27.4 km/h 95% 0 mm 0.00 W/m2
03:41 0.6 °C -0.3 °C 1016.1 hPa South 8 km/h 27.4 km/h 94% 0 mm 0.00 W/m2
03:46 0.6 °C -0.3 °C 1016.1 hPa South 8 km/h 24.1 km/h 94% 0 mm 0.00 W/m2
03:51 0.6 °C -0.3 °C 1016.1 hPa South 3.2 km/h 19.3 km/h 94% 0 mm 0.00 W/m2
03:56 0.5 °C -0.3 °C 1016.1 hPa South 6.4 km/h 24.1 km/h 94% 0 mm 0.00 W/m2
04:01 0.6 °C -0.3 °C 1016.1 hPa SSE 16.1 km/h 22.5 km/h 94% 0 mm 0.00 W/m2
04:06 0.6 °C -0.3 °C 1016.1 hPa SW 16.1 km/h 24.1 km/h 94% 0 mm 0.00 W/m2
04:11 0.6 °C -0.3 °C 1016.1 hPa SSE 19.3 km/h 32.2 km/h 94% 0 mm 0.00 W/m2
04:16 0.6 °C -0.3 °C 1016.1 hPa South 11.3 km/h 27.4 km/h 94% 0 mm 0.00 W/m2
04:21 0.5 °C -0.3 °C 1016.1 hPa South 9.7 km/h 27.4 km/h 94% 0 mm 0.00 W/m2
04:26 0.5 °C -0.3 °C 1016.5 hPa SSW 1.6 km/h 16.1 km/h 94% 0 mm 0.00 W/m2
04:31 0.4 °C -0.4 °C 1016.5 hPa South 17.7 km/h 30.6 km/h 94% 0 mm 0.00 W/m2
04:36 0.4 °C -0.4 °C 1016.5 hPa South 9.7 km/h 25.7 km/h 94% 0 mm 0.00 W/m2
04:41 0.4 °C -0.4 °C 1016.5 hPa SW 6.4 km/h 20.9 km/h 94% 0 mm 0.00 W/m2
04:46 0.4 °C -0.3 °C 1016.5 hPa SSW 8 km/h 14.5 km/h 95% 0 mm 0.00 W/m2
04:51 0.4 °C -0.4 °C 1016.5 hPa South 6.4 km/h 20.9 km/h 94% 0 mm 0.00 W/m2
04:56 0.3 °C -0.4 °C 1016.5 hPa SSW 20.9 km/h 30.6 km/h 95% 0 mm 0.00 W/m2
05:01 0.3 °C -0.4 °C 1016.5 hPa SSW 1.6 km/h 22.5 km/h 95% 0 mm 0.00 W/m2
05:06 0.3 °C -0.4 °C 1016.5 hPa SSW 3.2 km/h 27.4 km/h 95% 0 mm 0.00 W/m2
05:11 0.3 °C -0.4 °C 1016.5 hPa South 4.8 km/h 20.9 km/h 95% 0 mm 0.00 W/m2
05:16 0.2 °C -0.6 °C 1016.5 hPa SW 16.1 km/h 19.3 km/h 94% 0 mm 0.00 W/m2
05:21 0.2 °C -0.7 °C 1016.5 hPa SSE 17.7 km/h 17.7 km/h 94% 0 mm 0.00 W/m2
05:26 0.2 °C -0.7 °C 1016.5 hPa Calm   19.3 km/h 94% 0 mm 0.00 W/m2
05:31 0.1 °C -0.7 °C 1016.5 hPa Calm   16.1 km/h 94% 0 mm 0.00 W/m2
05:36 0.1 °C -0.7 °C 1016.5 hPa SSE 11.3 km/h 19.3 km/h 94% 0 mm 0.00 W/m2
05:41 0.1 °C -0.7 °C 1016.5 hPa SSE 9.7 km/h 16.1 km/h 94% 0 mm 0.00 W/m2
05:46 0.1 °C -0.8 °C 1016.5 hPa South 6.4 km/h 14.5 km/h 94% 0 mm 0.00 W/m2
05:51 0.1 °C -0.8 °C 1016.5 hPa South 11.3 km/h 20.9 km/h 94% 0 mm 0.00 W/m2
05:56 0.1 °C -0.8 °C 1016.5 hPa South 12.9 km/h 19.3 km/h 94% 0 mm 0.00 W/m2
06:01 0.1 °C -0.7 °C 1016.5 hPa SSE 16.1 km/h 17.7 km/h 95% 0 mm 0.00 W/m2
06:06 0.1 °C -0.7 °C 1016.5 hPa SW 12.9 km/h 24.1 km/h 95% 0 mm 0.00 W/m2
06:11 0 °C -0.7 °C 1016.8 hPa South 11.3 km/h 22.5 km/h 95% 0 mm 0.00 W/m2
06:16 0 °C -0.7 °C 1016.8 hPa Calm   16.1 km/h 95% 0 mm 0.00 W/m2
06:21 0 °C -0.7 °C 1016.8 hPa SSW 11.3 km/h 12.9 km/h 95% 0 mm 0.00 W/m2
06:26 0 °C -0.7 °C 1016.8 hPa Calm   11.3 km/h 95% 1.27 mm 0.00 W/m2
06:31 0 °C -0.7 °C 1016.8 hPa South 6.4 km/h 14.5 km/h 95% 1.27 mm 0.00 W/m2
06:36 0 °C -0.7 °C 1016.8 hPa South 3.2 km/h 20.9 km/h 95% 1.27 mm 0.00 W/m2
06:41 0 °C -0.7 °C 1016.8 hPa Calm   12.9 km/h 95% 1.02 mm 0.00 W/m2
06:46 0 °C -0.7 °C 1016.8 hPa SSE 3.2 km/h 25.7 km/h 95% 0 mm 0.00 W/m2
06:51 0 °C -0.7 °C 1017.2 hPa SSW 8 km/h 19.3 km/h 95% 0 mm 0.00 W/m2
06:56 0 °C -0.7 °C 1017.2 hPa Calm   17.7 km/h 95% 0 mm 0.00 W/m2
06:57 0 °C -0.7 °C 1017.2 hPa Calm     95% 0 mm 0.00 W/m2
07:02 -0.1 °C -0.8 °C 1017.2 hPa SSW 6.4 km/h 11.3 km/h 95% 0 mm 0.00 W/m2
07:07 -0.1 °C -0.8 °C 1017.2 hPa SSW 3.2 km/h 17.7 km/h 95% 0 mm 0.00 W/m2
07:12 -0.1 °C -0.8 °C 1017.2 hPa Calm   4.8 km/h 95% 0 mm 0.00 W/m2
07:17 -0.1 °C -0.8 °C 1017.2 hPa Calm     95% 0 mm 0.00 W/m2
07:22 -0.1 °C -0.8 °C 1017.2 hPa Calm   9.7 km/h 95% 1.02 mm 0.00 W/m2
07:27 -0.1 °C -0.8 °C 1017.2 hPa Calm   14.5 km/h 95% 1.02 mm 0.00 W/m2
07:32 -0.1 °C -0.8 °C 1017.2 hPa Calm     95% 1.02 mm 0.00 W/m2
07:37 -0.1 °C -0.8 °C 1017.2 hPa Calm     95% 1.27 mm 5.00 W/m2
07:42 -0.1 °C -0.8 °C 1017.2 hPa Calm     95% 1.27 mm 7.00 W/m2
07:47 -0.1 °C -0.8 °C 1017.2 hPa Calm     95% 1.02 mm 9.00 W/m2
07:52 -0.2 °C -1 °C 1017.2 hPa Calm     94% 0 mm 12.00 W/m2
07:58 -0.2 °C -1 °C 1017.2 hPa Calm     94% 0 mm 7.00 W/m2
08:03 -0.2 °C -0.9 °C 1017.2 hPa Calm     95% 0 mm 12.00 W/m2
08:08 -0.2 °C -0.9 °C 1017.2 hPa Calm     95% 0 mm 19.00 W/m2
08:13 -0.2 °C -0.9 °C 1017.2 hPa Calm     95% 0 mm 7.00 W/m2
08:18 -0.3 °C -1 °C 1017.2 hPa Calm     95% 0 mm 9.00 W/m2
08:23 -0.3 °C -1 °C 1017.2 hPa Calm     95% 0 mm 21.00 W/m2
08:28 -0.2 °C -0.9 °C 1017.5 hPa Calm     95% 0 mm 11.00 W/m2
08:33 -0.2 °C -0.9 °C 1017.5 hPa Calm     95% 0 mm 11.00 W/m2
08:38 -0.2 °C -0.9 °C 1017.5 hPa Calm   4.8 km/h 95% 1.52 mm 14.00 W/m2
08:43 -0.3 °C -1 °C 1017.5 hPa Calm   9.7 km/h 95% 1.52 mm 19.00 W/m2
08:48 -0.3 °C -1 °C 1017.5 hPa South 8 km/h 12.9 km/h 95% 1.27 mm 12.00 W/m2
08:53 -0.3 °C -1.1 °C 1017.5 hPa Calm     95% 1.27 mm 16.00 W/m2
08:58 -0.3 °C -1.1 °C 1017.5 hPa Calm     95% 1.78 mm 33.00 W/m2
09:03 -0.3 °C -1.1 °C 1017.5 hPa Calm     95% 2.03 mm 30.00 W/m2
09:08 -0.3 °C -1.1 °C 1017.8 hPa Calm     95% 3.56 mm 23.00 W/m2
09:13 -0.4 °C -1.2 °C 1017.8 hPa South 12.9 km/h 19.3 km/h 94% 2.54 mm 39.00 W/m2
09:18 -0.4 °C -1.2 °C 1018.2 hPa Calm   12.9 km/h 94% 2.29 mm 32.00 W/m2
09:23 -0.4 °C -1.2 °C 1018.2 hPa SW 9.7 km/h 12.9 km/h 94% 3.56 mm 51.00 W/m2
09:28 -0.4 °C -1.2 °C 1018.2 hPa Calm   8 km/h 94% 3.05 mm 26.00 W/m2
09:33 -0.4 °C -1.2 °C 1018.2 hPa Calm     94% 3.05 mm 23.00 W/m2
09:38 -0.4 °C -1.2 °C 1018.2 hPa Calm     94% 2.54 mm 28.00 W/m2
09:43 -0.4 °C -1.2 °C 1018.2 hPa Calm     94% 2.29 mm 51.00 W/m2
09:48 -0.4 °C -1.2 °C 1018.2 hPa Calm     94% 4.06 mm 84.00 W/m2
09:53 -0.4 °C -1.2 °C 1018.2 hPa South 6.4 km/h 11.3 km/h 94% 3.81 mm 72.00 W/m2
09:58 -0.4 °C -1.2 °C 1018.2 hPa Calm   11.3 km/h 94% 3.56 mm 88.00 W/m2
10:03 -0.3 °C -1.1 °C 1018.2 hPa SSW 11.3 km/h 11.3 km/h 95% 3.05 mm 67.00 W/m2
10:08 -0.3 °C -1.1 °C 1018.5 hPa Calm     95% 2.29 mm 62.00 W/m2
10:13 -0.3 °C -1 °C 1018.5 hPa South 11.3 km/h 12.9 km/h 95% 2.03 mm 54.00 W/m2
10:18 -0.3 °C -1 °C 1018.5 hPa Calm     95% 1.78 mm 67.00 W/m2
10:23 -0.3 °C -1 °C 1018.5 hPa Calm     95% 3.3 mm 67.00 W/m2
10:28 -0.2 °C -0.9 °C 1018.5 hPa South 3.2 km/h 12.9 km/h 95% 2.54 mm 81.00 W/m2
10:33 -0.2 °C -0.9 °C 1018.5 hPa South 9.7 km/h 17.7 km/h 95% 2.29 mm 81.00 W/m2
10:38 -0.2 °C -0.9 °C 1018.5 hPa Calm   16.1 km/h 95% 1.78 mm 95.00 W/m2
10:43 -0.1 °C -0.8 °C 1018.5 hPa South 3.2 km/h 19.3 km/h 95% 1.78 mm 116.00 W/m2
10:48 -0.1 °C -0.8 °C 1018.5 hPa Calm   11.3 km/h 95% 1.27 mm 144.00 W/m2
10:53 0 °C -0.7 °C 1018.5 hPa SSW 9.7 km/h 17.7 km/h 95% 0 mm 135.00 W/m2
10:58 0.1 °C -0.7 °C 1018.5 hPa SSW 20.9 km/h 22.5 km/h 95% 0 mm 91.00 W/m2
11:03 0.1 °C -0.6 °C 1018.5 hPa South 8 km/h 17.7 km/h 95% 0 mm 107.00 W/m2
11:08 0.2 °C -0.6 °C 1018.5 hPa SSW 8 km/h 19.3 km/h 95% 0 mm 83.00 W/m2
11:13 0.2 °C -0.6 °C 1018.5 hPa South 9.7 km/h 22.5 km/h 95% 0 mm 90.00 W/m2
11:18 0.2 °C -0.5 °C 1018.5 hPa South 9.7 km/h 14.5 km/h 95% 0 mm 54.00 W/m2
11:23 0.2 °C -0.5 °C 1018.5 hPa SSW 3.2 km/h 16.1 km/h 95% 0 mm 62.00 W/m2
11:28 0.2 °C -0.5 °C 1018.5 hPa SSE 14.5 km/h 24.1 km/h 95% 0 mm 51.00 W/m2
11:33 0.3 °C -0.4 °C 1018.5 hPa Calm   17.7 km/h 95% 0 mm 51.00 W/m2
11:38 0.3 °C -0.4 °C 1018.5 hPa South 8 km/h 19.3 km/h 95% 0 mm 47.00 W/m2
11:43 0.3 °C -0.4 °C 1018.5 hPa South 11.3 km/h 19.3 km/h 95% 0 mm 60.00 W/m2
11:48 0.3 °C -0.4 °C 1018.5 hPa South 16.1 km/h 22.5 km/h 95% 0 mm 86.00 W/m2
11:54 0.3 °C -0.4 °C 1018.5 hPa SW 1.6 km/h 17.7 km/h 95% 0 mm 69.00 W/m2
11:59 0.3 °C -0.4 °C 1018.5 hPa South 1.6 km/h 12.9 km/h 95% 0 mm 56.00 W/m2
12:04 0.3 °C -0.4 °C 1018.5 hPa SSW 6.4 km/h 17.7 km/h 95% 0 mm 54.00 W/m2
12:09 0.3 °C -0.4 °C 1018.5 hPa SSW 3.2 km/h 16.1 km/h 95% 0 mm 54.00 W/m2
12:14 0.4 °C -0.3 °C 1018.2 hPa Calm   16.1 km/h 95% 0 mm 63.00 W/m2
12:19 0.4 °C -0.3 °C 1018.2 hPa SSW 9.7 km/h 16.1 km/h 95% 0 mm 39.00 W/m2
12:24 0.4 °C -0.3 °C 1018.2 hPa South 4.8 km/h 14.5 km/h 95% 0 mm 30.00 W/m2
12:29 0.4 °C -0.3 °C 1018.2 hPa SSE 11.3 km/h 19.3 km/h 95% 0 mm 33.00 W/m2
12:34 0.4 °C -0.3 °C 1018.2 hPa Calm   24.1 km/h 95% 0 mm 62.00 W/m2
12:39 0.4 °C -0.3 °C 1018.2 hPa South 9.7 km/h 14.5 km/h 95% 0 mm 93.00 W/m2
12:44 0.4 °C -0.3 °C 1018.2 hPa South 8 km/h 17.7 km/h 95% 0 mm 93.00 W/m2
12:49 0.4 °C -0.3 °C 1018.2 hPa SSW 8 km/h 22.5 km/h 95% 0 mm 125.00 W/m2
12:54 0.4 °C -0.3 °C 1018.2 hPa SSE 8 km/h 22.5 km/h 95% 0 mm 107.00 W/m2
12:59 0.5 °C -0.2 °C 1018.2 hPa SSW 6.4 km/h 20.9 km/h 95% 0 mm 54.00 W/m2
13:04 0.5 °C -0.2 °C 1018.2 hPa SSW 16.1 km/h 29 km/h 95% 0 mm 90.00 W/m2
13:09 0.5 °C -0.2 °C 1018.2 hPa Calm   22.5 km/h 95% 0 mm 33.00 W/m2
13:14 0.5 °C -0.2 °C 1018.2 hPa South 9.7 km/h 17.7 km/h 95% 0 mm 153.00 W/m2
13:19 0.6 °C -0.2 °C 1018.2 hPa SSE 16.1 km/h 29 km/h 95% 0 mm 323.00 W/m2
13:20 0.6 °C -0.2 °C 1018.2 hPa Calm   29 km/h 95% 0 mm 229.00 W/m2
13:25 0.6 °C -0.2 °C 1018.2 hPa SSW 9.7 km/h 20.9 km/h 95% 0 mm 76.00 W/m2
13:30 0.6 °C -0.1 °C 1018.2 hPa SSW 8 km/h 22.5 km/h 95% 0 mm 134.00 W/m2
13:35 0.6 °C -0.1 °C 1018.2 hPa South 12.9 km/h 22.5 km/h 95% 0 mm 56.00 W/m2
13:40 0.7 °C -0.1 °C 1017.8 hPa SSW 19.3 km/h 29 km/h 95% 0 mm 60.00 W/m2
13:45 0.7 °C -0.1 °C 1018.2 hPa SSE 14.5 km/h 27.4 km/h 95% 0 mm 56.00 W/m2
13:50 0.7 °C -0.1 °C 1017.8 hPa SSE 25.7 km/h 29 km/h 95% 0 mm 30.00 W/m2
13:55 0.7 °C -0.1 °C 1017.8 hPa SSE 19.3 km/h 32.2 km/h 95% 0 mm 44.00 W/m2
14:00 0.7 °C -0.1 °C 1018.2 hPa SSE 29 km/h 29 km/h 95% 0 mm 58.00 W/m2
14:05 0.7 °C 0 °C 1018.2 hPa South 19.3 km/h 29 km/h 95% 0 mm 32.00 W/m2
14:10 0.7 °C 0 °C 1018.2 hPa South 14.5 km/h 27.4 km/h 95% 0 mm 53.00 W/m2
14:15 0.7 °C 0 °C 1018.2 hPa South 12.9 km/h 20.9 km/h 95% 0 mm 37.00 W/m2
14:20 0.7 °C 0 °C 1018.2 hPa South 16.1 km/h 25.7 km/h 95% 0 mm 33.00 W/m2
14:25 0.7 °C 0 °C 1018.2 hPa SSW 14.5 km/h 20.9 km/h 95% 0 mm 33.00 W/m2
14:30 0.7 °C 0 °C 1018.2 hPa SSE 12.9 km/h 25.7 km/h 95% 0 mm 46.00 W/m2
14:36 0.7 °C 0 °C 1018.2 hPa South 9.7 km/h 22.5 km/h 95% 0 mm 39.00 W/m2
14:41 0.7 °C 0 °C 1018.2 hPa SSW 8 km/h 25.7 km/h 95% 0 mm 32.00 W/m2
14:46 0.8 °C 0.1 °C 1018.2 hPa South 22.5 km/h 27.4 km/h 95% 0 mm 26.00 W/m2
14:51 0.8 °C 0.1 °C 1018.2 hPa South 16.1 km/h 27.4 km/h 95% 0 mm 42.00 W/m2
14:56 0.8 °C 0.1 °C 1018.2 hPa South 11.3 km/h 30.6 km/h 95% 0 mm 16.00 W/m2
15:01 0.8 °C 0.1 °C 1018.2 hPa South 12.9 km/h 29 km/h 95% 0 mm 32.00 W/m2
15:06 0.8 °C 0.1 °C 1018.2 hPa SE 20.9 km/h 33.8 km/h 95% 0 mm 18.00 W/m2
15:11 0.8 °C 0.1 °C 1018.2 hPa SSE 24.1 km/h 37 km/h 95% 0 mm 21.00 W/m2
15:16 0.8 °C 0.1 °C 1018.5 hPa SSW 12.9 km/h 35.4 km/h 95% 0 mm 12.00 W/m2
15:21 0.8 °C 0.1 °C 1018.8 hPa WSW 8 km/h 37 km/h 95% 0 mm 14.00 W/m2
15:26 0.6 °C -0.1 °C 1018.8 hPa SW 8 km/h 25.7 km/h 95% 0 mm 12.00 W/m2
15:31 0.4 °C -0.3 °C 1018.8 hPa SW 8 km/h 22.5 km/h 95% 0 mm 23.00 W/m2
15:36 0.3 °C -0.4 °C 1018.5 hPa SSW 3.2 km/h 17.7 km/h 95% 0 mm 23.00 W/m2
15:41 0.3 °C -0.4 °C 1018.5 hPa SW 4.8 km/h 14.5 km/h 95% 0 mm 74.00 W/m2
15:46 0.3 °C -0.4 °C 1018.5 hPa SW 4.8 km/h 14.5 km/h 95% 0 mm 33.00 W/m2
15:51 0.3 °C -0.4 °C 1018.5 hPa SW 8 km/h 16.1 km/h 95% 0 mm 33.00 W/m2
15:56 0.3 °C -0.4 °C 1018.5 hPa Calm   14.5 km/h 95% 4.06 mm 21.00 W/m2
16:01 0.3 °C -0.4 °C 1018.5 hPa SW 4.8 km/h 19.3 km/h 95% 4.57 mm 23.00 W/m2
16:06 0.3 °C -0.4 °C 1018.8 hPa SW 6.4 km/h 17.7 km/h 95% 3.56 mm 14.00 W/m2
16:11 0.3 °C -0.4 °C 1018.8 hPa SSW 14.5 km/h 20.9 km/h 95% 4.32 mm 14.00 W/m2
16:16 0.3 °C -0.4 °C 1018.8 hPa South 1.6 km/h 37 km/h 95% 3.05 mm 14.00 W/m2
16:21 0.4 °C -0.3 °C 1018.8 hPa SSW 8 km/h 9.7 km/h 95% 3.05 mm 14.00 W/m2
16:26 0.4 °C -0.3 °C 1019.2 hPa South 22.5 km/h 33.8 km/h 95% 2.54 mm 11.00 W/m2
16:31 0.4 °C -0.3 °C 1019.2 hPa South 12.9 km/h 25.7 km/h 95% 1.78 mm 7.00 W/m2
16:36 0.4 °C -0.3 °C 1019.2 hPa South 11.3 km/h 25.7 km/h 95% 1.78 mm 5.00 W/m2
16:41 0.4 °C -0.3 °C 1019.2 hPa South 8 km/h 19.3 km/h 95% 1.27 mm 0.00 W/m2
16:46 0.5 °C -0.2 °C 1019.2 hPa Calm   27.4 km/h 95% 1.27 mm 5.00 W/m2
16:51 0.5 °C -0.2 °C 1019.2 hPa South 16.1 km/h 25.7 km/h 95% 1.27 mm 0.00 W/m2
16:56 0.6 °C -0.2 °C 1019.2 hPa South 11.3 km/h 20.9 km/h 95% 1.02 mm 0.00 W/m2
17:01 0.6 °C -0.2 °C 1019.2 hPa SE 16.1 km/h 24.1 km/h 95% 0 mm 0.00 W/m2
17:06 0.6 °C -0.1 °C 1018.8 hPa SSW 9.7 km/h 9.7 km/h 95% 0 mm 0.00 W/m2
17:11 0.7 °C -0.1 °C 1018.8 hPa South 11.3 km/h 24.1 km/h 95% 0 mm 0.00 W/m2
17:16 0.7 °C -0.1 °C 1018.8 hPa South 27.4 km/h 27.4 km/h 95% 0 mm 0.00 W/m2
17:21 0.7 °C 0 °C 1018.8 hPa South 6.4 km/h 6.4 km/h 95% 0 mm 0.00 W/m2
17:26 0.8 °C 0.1 °C 1018.8 hPa South 11.3 km/h 20.9 km/h 95% 0 mm 0.00 W/m2
17:31 0.8 °C 0.1 °C 1018.8 hPa SSW 6.4 km/h 30.6 km/h 95% 0 mm 0.00 W/m2
17:36 0.8 °C 0.1 °C 1018.8 hPa SSE 9.7 km/h 27.4 km/h 95% 0 mm 0.00 W/m2
17:41 0.9 °C 0.2 °C 1019.2 hPa SSW 12.9 km/h 12.9 km/h 95% 0 mm 0.00 W/m2
17:46 0.9 °C 0.2 °C 1019.2 hPa South 16.1 km/h 27.4 km/h 95% 0 mm 0.00 W/m2
17:51 0.9 °C 0.2 °C 1019.2 hPa SSW 12.9 km/h 16.1 km/h 95% 0 mm 0.00 W/m2
17:56 0.9 °C 0.2 °C 1019.2 hPa SSE 17.7 km/h 19.3 km/h 95% 0 mm 0.00 W/m2
18:01 0.9 °C 0.2 °C 1019.2 hPa SSE 19.3 km/h 19.3 km/h 95% 0 mm 0.00 W/m2
18:06 0.9 °C 0.2 °C 1019.2 hPa South 22.5 km/h 29 km/h 95% 0 mm 0.00 W/m2
18:11 1 °C 0.3 °C 1019.5 hPa South 11.3 km/h 16.1 km/h 95% 0 mm 0.00 W/m2
18:16 1 °C 0.3 °C 1019.5 hPa SSE 22.5 km/h 22.5 km/h 95% 0 mm 0.00 W/m2
18:21 1.1 °C 0.3 °C 1019.5 hPa South 17.7 km/h 20.9 km/h 95% 0 mm 0.00 W/m2
18:26 1 °C 0.3 °C 1019.9 hPa South 11.3 km/h 16.1 km/h 95% 0 mm 0.00 W/m2
18:31 1.1 °C 0.3 °C 1019.9 hPa South 17.7 km/h 25.7 km/h 95% 0 mm 0.00 W/m2
18:36 1.1 °C 0.4 °C 1019.9 hPa South 16.1 km/h 17.7 km/h 95% 0 mm 0.00 W/m2
18:41 1.2 °C 0.4 °C 1019.9 hPa South 19.3 km/h 19.3 km/h 95% 0 mm 0.00 W/m2
18:46 1.2 °C 0.5 °C 1019.9 hPa SSE 17.7 km/h 20.9 km/h 95% 0 mm 0.00 W/m2
18:51 1.2 °C 0.5 °C 1019.9 hPa SSW 19.3 km/h 20.9 km/h 95% 0 mm 0.00 W/m2
18:56 1.2 °C 0.5 °C 1019.9 hPa South 16.1 km/h 20.9 km/h 95% 0 mm 0.00 W/m2
19:01 1.2 °C 0.5 °C 1019.9 hPa South 20.9 km/h 20.9 km/h 95% 0 mm 0.00 W/m2
19:06 1.2 °C 0.5 °C 1019.9 hPa South 19.3 km/h 20.9 km/h 95% 0 mm 0.00 W/m2
19:11 1.2 °C 0.5 °C 1019.9 hPa SSE 19.3 km/h 19.3 km/h 95% 0 mm 0.00 W/m2
19:16 1.2 °C 0.5 °C 1019.9 hPa South 6.4 km/h 12.9 km/h 95% 0 mm 0.00 W/m2
19:21 1.2 °C 0.5 °C 1019.9 hPa SSE 14.5 km/h 14.5 km/h 95% 0 mm 0.00 W/m2
19:26 1.2 °C 0.5 °C 1019.9 hPa South 8 km/h 19.3 km/h 95% 0 mm 0.00 W/m2
19:31 1.2 °C 0.5 °C 1019.9 hPa South 20.9 km/h 24.1 km/h 95% 0 mm 0.00 W/m2
19:36 1.3 °C 0.6 °C 1020.2 hPa Calm   1.6 km/h 95% 0 mm 0.00 W/m2
19:38 1.3 °C 0.6 °C 1020.2 hPa SSE 30.6 km/h 30.6 km/h 95% 0 mm 0.00 W/m2
19:43 1.3 °C 0.6 °C 1020.2 hPa South 8 km/h 20.9 km/h 95% 0 mm 0.00 W/m2
19:48 1.3 °C 0.6 °C 1020.2 hPa SSE 9.7 km/h 27.4 km/h 95% 0 mm 0.00 W/m2
19:53 1.4 °C 0.7 °C 1020.2 hPa WSW 8 km/h 29 km/h 95% 0 mm 0.00 W/m2
19:58 1.4 °C 0.7 °C 1020.5 hPa South 17.7 km/h 25.7 km/h 95% 0 mm 0.00 W/m2
20:03 1.4 °C 0.7 °C 1020.5 hPa SSE 16.1 km/h 35.4 km/h 95% 0 mm 0.00 W/m2
20:08 1.4 °C 0.7 °C 1020.5 hPa South 11.3 km/h 27.4 km/h 95% 0 mm 0.00 W/m2
20:13 1.3 °C 0.6 °C 1020.5 hPa South 14.5 km/h 19.3 km/h 95% 1.27 mm 0.00 W/m2
20:18 1.2 °C 0.4 °C 1020.5 hPa South 8 km/h 14.5 km/h 95% 1.27 mm 0.00 W/m2
20:23 1.1 °C 0.3 °C 1020.5 hPa Calm     95% 1.27 mm 0.00 W/m2
20:28 0.9 °C 0.2 °C 1020.5 hPa South 8 km/h 11.3 km/h 95% 4.57 mm 0.00 W/m2
20:33 0.8 °C 0.1 °C 1020.2 hPa Calm     95% 2.03 mm 0.00 W/m2
20:38 0.7 °C 0 °C 1020.2 hPa South 3.2 km/h 19.3 km/h 95% 3.56 mm 0.00 W/m2
20:43 0.6 °C -0.1 °C 1020.2 hPa South 12.9 km/h 27.4 km/h 95% 3.3 mm 0.00 W/m2
20:48 0.6 °C -0.1 °C 1020.2 hPa South 14.5 km/h 27.4 km/h 95% 3.05 mm 0.00 W/m2
20:53 0.7 °C 0 °C 1020.5 hPa SSW 3.2 km/h 24.1 km/h 95% 2.54 mm 0.00 W/m2
20:58 0.7 °C 0 °C 1020.5 hPa Calm   11.3 km/h 95% 1.78 mm 0.00 W/m2
21:03 0.7 °C -0.1 °C 1020.5 hPa South 16.1 km/h 33.8 km/h 95% 1.02 mm 0.00 W/m2
21:08 0.7 °C -0.1 °C 1020.9 hPa West 27.4 km/h 33.8 km/h 95% 1.02 mm 0.00 W/m2
21:13 0.7 °C 0 °C 1020.9 hPa South 14.5 km/h 33.8 km/h 95% 3.81 mm 0.00 W/m2
21:18 0.8 °C 0.1 °C 1020.9 hPa SSE 11.3 km/h 29 km/h 95% 5.59 mm 0.00 W/m2
21:23 0.9 °C 0.2 °C 1020.9 hPa SSW 9.7 km/h 22.5 km/h 95% 3.3 mm 0.00 W/m2
21:28 0.9 °C 0.2 °C 1020.9 hPa South 17.7 km/h 22.5 km/h 95% 4.57 mm 0.00 W/m2
21:33 1 °C 0.3 °C 1020.9 hPa SW 20.9 km/h 30.6 km/h 95% 3.56 mm 0.00 W/m2
21:38 1.1 °C 0.3 °C 1020.5 hPa SSE 11.3 km/h 20.9 km/h 95% 3.81 mm 0.00 W/m2
21:43 1.1 °C 0.4 °C 1020.9 hPa South 14.5 km/h 25.7 km/h 95% 3.05 mm 0.00 W/m2
21:48 1.2 °C 0.6 °C 1020.9 hPa South 9.7 km/h 29 km/h 96% 4.06 mm 0.00 W/m2
21:53 1.2 °C 0.7 °C 1020.9 hPa SW 3.2 km/h 25.7 km/h 96% 4.32 mm 0.00 W/m2
21:58 1.2 °C 0.7 °C 1020.9 hPa SSE 14.5 km/h 32.2 km/h 96% 2.54 mm 0.00 W/m2
22:03 1.2 °C 0.5 °C 1020.9 hPa SSW 12.9 km/h 25.7 km/h 95% 2.29 mm 0.00 W/m2
22:08 1.2 °C 0.4 °C 1021.2 hPa South 17.7 km/h 32.2 km/h 95% 1.27 mm 0.00 W/m2
22:13 1.2 °C 0.5 °C 1021.2 hPa Calm   16.1 km/h 95% 1.02 mm 0.00 W/m2
22:18 1.3 °C 0.6 °C 1021.2 hPa SSE 11.3 km/h 30.6 km/h 95% 0 mm 0.00 W/m2
22:23 1.3 °C 0.6 °C 1021.2 hPa South 17.7 km/h 30.6 km/h 95% 0 mm 0.00 W/m2
22:28 1.3 °C 0.6 °C 1021.2 hPa South 6.4 km/h 19.3 km/h 95% 0 mm 0.00 W/m2
22:33 1.3 °C 0.6 °C 1021.2 hPa South 14.5 km/h 24.1 km/h 95% 0 mm 0.00 W/m2
22:38 1.3 °C 0.6 °C 1021.6 hPa South 12.9 km/h 22.5 km/h 95% 0 mm 0.00 W/m2
22:43 1.2 °C 0.5 °C 1021.2 hPa SSW 17.7 km/h 19.3 km/h 95% 0 mm 0.00 W/m2
22:48 1.2 °C 0.4 °C 1021.6 hPa SSE 11.3 km/h 22.5 km/h 95% 0 mm 0.00 W/m2
22:53 1.2 °C 0.4 °C 1021.6 hPa SSW 14.5 km/h 24.1 km/h 95% 0 mm 0.00 W/m2
22:58 1.1 °C 0.4 °C 1021.6 hPa SW 14.5 km/h 20.9 km/h 95% 0 mm 0.00 W/m2
23:03 1.1 °C 0.4 °C 1021.6 hPa SSE 9.7 km/h 25.7 km/h 95% 0 mm 0.00 W/m2
23:08 1.2 °C 0.4 °C 1021.9 hPa South 20.9 km/h 22.5 km/h 95% 0 mm 0.00 W/m2
23:13 1.2 °C 0.5 °C 1021.9 hPa South 4.8 km/h 22.5 km/h 95% 0 mm 0.00 W/m2
23:18 1.2 °C 0.5 °C 1021.9 hPa SSE 20.9 km/h 24.1 km/h 95% 0 mm 0.00 W/m2
23:23 1.3 °C 0.6 °C 1021.9 hPa South 11.3 km/h 32.2 km/h 95% 0 mm 0.00 W/m2
23:28 1.3 °C 0.6 °C 1021.9 hPa SE 16.1 km/h 29 km/h 95% 0 mm 0.00 W/m2
23:33 1.3 °C 0.6 °C 1021.9 hPa South 6.4 km/h 33.8 km/h 95% 0 mm 0.00 W/m2
23:38 1.4 °C 0.7 °C 1021.9 hPa South 14.5 km/h 24.1 km/h 95% 0 mm 0.00 W/m2
23:43 1.4 °C 0.7 °C 1021.9 hPa South 8 km/h 30.6 km/h 95% 0 mm 0.00 W/m2
23:48 1.4 °C 0.7 °C 1021.9 hPa South 12.9 km/h 29 km/h 95% 0 mm 0.00 W/m2
23:53 1.4 °C 0.7 °C 1021.9 hPa SSE 9.7 km/h 25.7 km/h 95% 0 mm 0.00 W/m2
23:58 1.5 °C 0.8 °C 1021.9 hPa South 14.5 km/h 27.4 km/h 95% 0 mm 0.00 W/m2
Foresthill Weather
 WU-history PHP script courtesy of   Juneau County Weather.
powered by Cumulus v1.9.3 (1059)
Ambient Weather VWS v14.00
Top Contact Website Map Copyright © 2007 - 2018 Foresthillweather.com Never base important decisions on this or any weather information obtained from the Internet